Погода в Новофедоровке

Украина / Херсонская область     46°10′25″N   32°19′11″E
темп.,
°C
ветер,
м/с
пор.,
м/с
влажн.,
%
обл.,
%
осадки,
мм/ч
давл.,
гПа
погр.,
м
24 января, вс
вс2423:00+8ю81688100 0.0 1014359
02:00+9ю9178199 0.0 1013379
05:00+9ю91578100 0.0 1011289
08:00+9ю91580100 0.0 1011305
11:00+10ю101675100 0.0 1011459
14:00+9ю101681100 0.1 1009664
17:00+8ююв101688100 0.4 1009526
20:00+9ю91688100 0.4 1009550
25 января, пн
пн2523:00+8ю7129294 0.3 1009316
02:00+8ююз6109456 0.3 1008210
05:00+8ю713920 0.0 1008274
08:00+9ю1017874 0.0 1007410
11:00+9ююв11207790 0.5 1006640
14:00+9ююв13218595 2.1 1004932
17:00+9ююв142189100 1.8 1001970
20:00+8юз111690100 5.6 1000718
26 января, вт
вт2623:00+6юз111672100 1.0 1003972
02:00+6юз7127450 1.0 1006502
05:00+5ююз587580 0.0 1007198
08:00+6ююв5108290 0.0 1007309
11:00+9ю121985100 0.7 1006674
14:00+9ю111685100 1.4 1004691
17:00+8юз5894100 0.6 1005243
20:00+7ссз2394100 0.8 100693
27 января, ср
ср2723:00+4с81191100 1.8 1005321
02:00+3с101492100 5.9 1003452
05:00+3ссв101492100 3.4 1001403
08:00+2ссв91394100 11.0 999343
11:00+2ссв81195100 6.4 997229
14:00+3с7895100 8.5 995177
17:00+2с111491100 0.4 996373
20:00+1ссз111688100 0.6 998570
28 января, чт
чт2823:000сз111592100 0.2 1000789
02:000сз101492100 0.9 1003971
05:00+1сз9138397 0.1 1004902
08:00+1сз8118096 0.1 1006818
11:00+2зсз797593 0.0 10081020
14:00+3з897496 0.3 10081003
17:00+2з8108098 0.4 1009941
20:00+1з8119199 0.7 1010746